�������l�o���
Date,Time,MP-1(��Sv/h),MP-2(��Sv/h),MP-3(��Sv/h),MP-4(��Sv/h),MP-5(��Sv/h),MP-6(��Sv/h),MP-7(��Sv/h),MP-8(��Sv/h),����,����(m/s),���J
2021/03/08,00:00,0.647,0.948,0.597,1.182,0.841,0.372,0.661,0.621,���쐼,1.5,��
2021/03/08,00:10,0.646,0.946,0.597,1.183,0.844,0.373,0.660,0.621,���쐼,0.9,��
2021/03/08,00:20,0.648,0.950,0.598,1.182,0.842,0.373,0.661,0.620,-,CALM,��
2021/03/08,00:30,0.646,0.951,0.597,1.181,0.844,0.373,0.661,0.620,���k��,0.8,��
2021/03/08,00:40,0.648,0.948,0.598,1.179,0.843,0.374,0.660,0.620,�k�k��,1.2,��
2021/03/08,00:50,0.647,0.950,0.597,1.183,0.843,0.372,0.660,0.619,�k,0.9,��
2021/03/08,01:00,0.647,0.949,0.598,1.182,0.844,0.375,0.662,0.621,�k,1.4,��
2021/03/08,01:10,0.647,0.948,0.597,1.182,0.844,0.373,0.661,0.620,�k��,0.6,��
2021/03/08,01:20,0.648,0.950,0.598,1.183,0.845,0.375,0.660,0.621,-,CALM,��
2021/03/08,01:30,0.645,0.947,0.597,1.185,0.845,0.373,0.660,0.621,�k��,0.6,��
2021/03/08,01:40,0.646,0.950,0.597,1.182,0.842,0.376,0.661,0.620,-,CALM,��
2021/03/08,01:50,0.648,0.949,0.598,1.182,0.843,0.375,0.661,0.619,�k�k��,0.6,��
2021/03/08,02:00,0.647,0.948,0.598,1.180,0.844,0.373,0.661,0.619,���k��,0.9,��
2021/03/08,02:10,0.646,0.949,0.599,1.182,0.844,0.374,0.660,0.621,�k��,0.8,��
2021/03/08,02:20,0.646,0.948,0.598,1.183,0.843,0.373,0.661,0.620,���k��,0.8,��
2021/03/08,02:30,0.647,0.950,0.597,1.183,0.843,0.374,0.661,0.621,��,0.6,��
2021/03/08,02:40,0.647,0.948,0.596,1.182,0.844,0.374,0.662,0.619,-,CALM,��
2021/03/08,02:50,0.647,0.946,0.599,1.183,0.843,0.374,0.662,0.620,�k�k��,1.2,��
2021/03/08,03:00,0.647,0.950,0.598,1.183,0.841,0.373,0.663,0.620,�k�k��,1.5,��
2021/03/08,03:10,0.648,0.949,0.599,1.184,0.845,0.374,0.661,0.622,�k�k��,1.2,��
2021/03/08,03:20,0.649,0.949,0.597,1.183,0.845,0.375,0.662,0.621,�k��,1.7,��
2021/03/08,03:30,0.648,0.950,0.596,1.183,0.843,0.374,0.663,0.621,�k��,2.3,��
2021/03/08,03:40,0.649,0.947,0.598,1.183,0.845,0.374,0.661,0.621,�k��,2.3,��
2021/03/08,03:50,0.649,0.949,0.597,1.183,0.844,0.374,0.662,0.621,�k��,3.4,��
2021/03/08,04:00,0.647,0.950,0.599,1.184,0.843,0.374,0.664,0.622,�k��,3.7,��
2021/03/08,04:10,0.647,0.949,0.598,1.185,0.845,0.373,0.663,0.621,�k��,3.8,��
2021/03/08,04:20,0.648,0.951,0.597,1.183,0.843,0.374,0.662,0.622,�k�k��,4.0,��
2021/03/08,04:30,0.647,0.950,0.599,1.183,0.844,0.373,0.663,0.621,�k�k��,5.0,��
2021/03/08,04:40,0.645,0.948,0.600,1.183,0.842,0.374,0.662,0.621,�k�k��,4.8,��
2021/03/08,04:50,0.646,0.949,0.598,1.184,0.844,0.375,0.663,0.622,�k�k��,5.0,��
2021/03/08,05:00,0.648,0.949,0.599,1.183,0.844,0.372,0.662,0.622,�k,5.8,��
2021/03/08,05:10,0.647,0.950,0.596,1.183,0.842,0.375,0.661,0.621,�k,6.1,��
2021/03/08,05:20,0.647,0.948,0.599,1.184,0.841,0.374,0.662,0.621,�k�k��,6.2,��
2021/03/08,05:30,0.646,0.948,0.599,1.184,0.844,0.375,0.663,0.620,�k�k��,6.7,��
2021/03/08,05:40,0.646,0.947,0.599,1.183,0.843,0.373,0.661,0.621,�k�k��,6.5,��
2021/03/08,05:50,0.646,0.948,0.598,1.181,0.843,0.373,0.661,0.621,�k�k��,6.2,��
2021/03/08,06:00,0.647,0.949,0.598,1.186,0.841,0.374,0.663,0.621,�k�k��,7.7,��
2021/03/08,06:10,0.647,0.949,0.598,1.183,0.842,0.373,0.662,0.621,�k,7.3,��
2021/03/08,06:20,0.646,0.948,0.597,1.183,0.844,0.373,0.667,0.620,�k�k��,7.0,��
2021/03/08,06:30,0.647,0.949,0.599,1.183,0.843,0.374,0.661,0.619,�k�k��,6.6,��
2021/03/08,06:40,0.646,0.949,0.598,1.182,0.843,0.373,0.663,0.620,�k�k��,6.4,��
2021/03/08,06:50,0.645,0.949,0.598,1.183,0.844,0.373,0.663,0.621,�k�k��,6.3,��
2021/03/08,07:00,0.648,0.948,0.598,1.182,0.844,0.374,0.664,0.619,�k,6.2,��
2021/03/08,07:10,0.646,0.948,0.599,1.187,0.844,0.372,0.662,0.620,�k�k��,6.0,��
2021/03/08,07:20,0.646,0.950,0.598,1.184,0.844,0.374,0.664,0.623,�k,5.8,��
2021/03/08,07:30,0.646,0.949,0.596,1.183,0.843,0.374,0.662,0.620,�k�k��,5.9,��
2021/03/08,07:40,0.646,0.949,0.598,1.183,0.843,0.374,0.663,0.621,�k,6.1,��
2021/03/08,07:50,0.648,0.949,0.597,1.182,0.844,0.373,0.663,0.621,�k�k��,6.3,��
2021/03/08,08:00,0.646,0.947,0.597,1.183,0.843,0.374,0.664,0.620,�k,6.4,��
2021/03/08,08:10,0.647,0.948,0.598,1.183,0.846,0.373,0.662,0.621,�k�k��,6.5,��
2021/03/08,08:20,0.646,0.947,0.598,1.183,0.843,0.372,0.664,0.621,�k,6.5,��
2021/03/08,08:30,0.645,0.947,0.598,1.183,0.844,0.375,0.663,0.620,�k,5.4,��
2021/03/08,08:40,0.646,0.947,0.598,1.184,0.843,0.374,0.663,0.622,�k�k��,5.6,��
2021/03/08,08:50,0.646,0.948,0.599,1.183,0.841,0.372,0.663,0.620,�k,5.8,��
2021/03/08,09:00,0.646,0.945,0.598,1.182,0.842,0.373,0.664,0.622,�k,7.5,��
2021/03/08,09:10,0.646,0.945,0.596,1.181,0.841,0.373,0.661,0.621,�k,7.9,��
2021/03/08,09:20,0.646,0.944,0.599,1.186,0.843,0.374,0.662,0.621,�k�k��,8.4,��
2021/03/08,09:30,0.647,0.945,0.598,1.185,0.842,0.374,0.663,0.623,�k�k��,8.0,��
2021/03/08,09:40,0.645,0.946,0.596,1.182,0.842,0.373,0.661,0.622,�k�k��,7.8,��
2021/03/08,09:50,0.645,0.948,0.597,1.184,0.841,0.373,0.661,0.621,�k�k��,7.8,��
2021/03/08,10:00,0.646,0.946,0.597,1.183,0.845,0.372,0.661,0.620,�k�k��,8.0,��
2021/03/08,10:10,0.647,0.945,0.599,1.184,0.844,0.373,0.661,0.622,�k,7.3,��
2021/03/08,10:20,0.646,0.948,0.596,1.183,0.844,0.374,0.661,0.622,�k�k��,7.8,��
2021/03/08,10:30,0.646,0.948,0.597,1.184,0.846,0.373,0.662,0.623,�k�k��,7.6,��
2021/03/08,10:40,0.647,0.948,0.597,1.185,0.843,0.374,0.661,0.622,�k�k��,8.5,��
2021/03/08,10:50,0.647,0.948,0.600,1.186,0.845,0.372,0.661,0.621,�k�k��,7.8,��
2021/03/08,11:00,0.648,0.948,0.599,1.184,0.844,0.369,0.660,0.621,�k�k��,7.6,��
2021/03/08,11:10,0.647,0.948,0.599,1.185,0.841,0.367,0.660,0.620,�k�k��,7.1,��
2021/03/08,11:20,0.647,0.947,0.598,1.185,0.843,0.371,0.660,0.623,�k�k��,6.2,��
2021/03/08,11:30,0.646,0.950,0.597,1.185,0.843,0.373,0.659,0.622,�k�k��,6.6,��
2021/03/08,11:40,0.648,0.947,0.600,1.185,0.845,0.373,0.660,0.622,�k�k��,7.4,��
2021/03/08,11:50,0.647,0.949,0.596,1.187,0.843,0.374,0.658,0.622,�k�k��,7.5,��
2021/03/08,12:00,0.647,0.950,0.599,1.185,0.844,0.374,0.658,0.622,�k�k��,6.2,��
2021/03/08,12:10,0.649,0.948,0.599,1.185,0.845,0.372,0.658,0.622,�k�k��,7.9,��
2021/03/08,12:20,0.647,0.948,0.598,1.185,0.844,0.374,0.660,0.621,�k�k��,8.2,��
2021/03/08,12:30,0.646,0.949,0.600,1.184,0.843,0.374,0.661,0.621,�k�k��,7.2,��
2021/03/08,12:40,0.648,0.947,0.601,1.184,0.845,0.374,0.659,0.622,�k�k��,6.7,��
2021/03/08,12:50,0.647,0.950,0.600,1.187,0.845,0.373,0.661,0.622,�k�k��,6.2,��
2021/03/08,13:00,0.648,0.946,0.601,1.186,0.846,0.374,0.660,0.622,�k�k��,7.1,��
2021/03/08,13:10,0.649,0.946,0.599,1.186,0.844,0.374,0.660,0.621,�k�k��,6.7,��
2021/03/08,13:20,0.648,0.948,0.598,1.186,0.848,0.375,0.662,0.621,�k�k��,5.9,��
2021/03/08,13:30,0.649,0.947,0.600,1.186,0.846,0.373,0.662,0.621,�k�k��,6.4,��
2021/03/08,13:40,0.647,0.949,0.600,1.186,0.846,0.373,0.661,0.624,�k�k��,6.0,��
2021/03/08,13:50,0.646,0.950,0.600,1.188,0.845,0.374,0.662,0.623,�k�k��,6.0,��
2021/03/08,14:00,0.647,0.948,0.601,1.188,0.846,0.374,0.662,0.623,�k�k��,5.8,��
2021/03/08,14:10,0.649,0.949,0.602,1.185,0.847,0.374,0.661,0.621,�k�k��,5.1,��
2021/03/08,14:20,0.648,0.949,0.597,1.187,0.844,0.374,0.660,0.623,�k�k��,5.5,��
2021/03/08,14:30,0.648,0.950,0.601,1.187,0.846,0.373,0.662,0.622,�k�k��,5.6,��
2021/03/08,14:40,0.648,0.951,0.599,1.186,0.847,0.375,0.661,0.622,�k��,5.4,��
2021/03/08,14:50,0.647,0.951,0.601,1.189,0.845,0.375,0.662,0.622,�k��,5.9,��
2021/03/08,15:00,0.649,0.951,0.601,1.189,0.846,0.375,0.661,0.622,�k�k��,5.4,��
2021/03/08,15:10,0.647,0.951,0.600,1.186,0.845,0.375,0.660,0.622,�k�k��,5.3,��
2021/03/08,15:20,0.648,0.950,0.599,1.187,0.845,0.375,0.662,0.620,�k�k��,6.0,��
2021/03/08,15:30,0.647,0.953,0.599,1.185,0.844,0.373,0.664,0.620,�k�k��,5.7,��
2021/03/08,15:40,0.649,0.951,0.599,1.186,0.844,0.374,0.662,0.620,�k�k��,5.5,��
2021/03/08,15:50,0.647,0.953,0.600,1.187,0.844,0.375,0.662,0.621,�k�k��,5.6,��
2021/03/08,16:00,0.648,0.955,0.598,1.187,0.844,0.377,0.661,0.622,�k�k��,5.5,��
2021/03/08,16:10,0.649,0.952,0.600,1.188,0.844,0.375,0.661,0.622,�k�k��,6.2,��
2021/03/08,16:20,0.647,0.951,0.599,1.188,0.844,0.373,0.663,0.621,�k�k��,5.6,��
2021/03/08,16:30,0.648,0.951,0.598,1.188,0.842,0.375,0.662,0.622,�k�k��,5.2,��
2021/03/08,16:40,0.647,0.953,0.600,1.188,0.844,0.376,0.662,0.622,�k�k��,5.3,��
2021/03/08,16:50,0.648,0.951,0.600,1.187,0.844,0.375,0.662,0.622,�k�k��,5.4,��
2021/03/08,17:00,0.648,0.951,0.599,1.186,0.844,0.374,0.664,0.622,�k�k��,6.4,��
2021/03/08,17:10,0.647,0.948,0.600,1.186,0.844,0.376,0.664,0.623,�k,6.3,��
2021/03/08,17:20,0.647,0.951,0.600,1.188,0.841,0.376,0.666,0.620,�k,5.7,��
2021/03/08,17:30,0.648,0.951,0.598,1.186,0.846,0.374,0.665,0.622,�k,5.8,��
2021/03/08,17:40,0.645,0.949,0.600,1.186,0.845,0.373,0.664,0.621,�k,6.2,��
2021/03/08,17:50,0.648,0.952,0.600,1.190,0.845,0.375,0.663,0.621,�k,5.4,��
2021/03/08,18:00,0.647,0.951,0.598,1.186,0.846,0.374,0.664,0.622,�k,4.5,��
2021/03/08,18:10,0.648,0.951,0.600,1.186,0.845,0.375,0.664,0.621,�k,4.1,��
2021/03/08,18:20,0.646,0.949,0.599,1.184,0.846,0.373,0.663,0.622,�k,4.0,��
2021/03/08,18:30,0.647,0.949,0.598,1.185,0.846,0.373,0.662,0.622,�k�k��,4.1,��
2021/03/08,18:40,0.646,0.949,0.598,1.187,0.844,0.375,0.662,0.622,�k�k��,3.9,��
2021/03/08,18:50,0.646,0.950,0.598,1.186,0.845,0.374,0.663,0.620,�k�k��,4.1,��
2021/03/08,19:00,0.645,0.948,0.598,1.187,0.845,0.374,0.664,0.621,�k�k��,4.6,��
2021/03/08,19:10,0.647,0.951,0.597,1.185,0.845,0.374,0.663,0.620,�k�k��,4.8,��
2021/03/08,19:20,0.645,0.948,0.597,1.187,0.846,0.373,0.662,0.620,�k�k��,5.3,��
2021/03/08,19:30,0.645,0.950,0.599,1.185,0.846,0.374,0.664,0.620,�k,5.8,��
2021/03/08,19:40,0.646,0.950,0.598,1.185,0.844,0.374,0.661,0.623,�k,5.6,��
2021/03/08,19:50,0.645,0.950,0.597,1.185,0.844,0.374,0.663,0.621,�k�k��,4.8,��
2021/03/08,20:00,0.645,0.951,0.598,1.185,0.844,0.374,0.661,0.620,�k�k��,5.4,��
2021/03/08,20:10,0.645,0.950,0.598,1.186,0.844,0.374,0.661,0.620,�k�k��,5.7,��
2021/03/08,20:20,0.646,0.948,0.598,1.187,0.845,0.374,0.663,0.621,�k�k��,5.9,��
2021/03/08,20:30,0.647,0.949,0.598,1.187,0.843,0.373,0.660,0.620,�k�k��,5.9,��
2021/03/08,20:40,0.646,0.949,0.600,1.186,0.845,0.375,0.662,0.621,�k�k��,5.9,��
2021/03/08,20:50,0.646,0.950,0.599,1.186,0.844,0.373,0.662,0.623,�k�k��,6.2,��
2021/03/08,21:00,0.645,0.950,0.598,1.186,0.845,0.374,0.662,0.619,�k�k��,6.0,��
2021/03/08,21:10,0.647,0.950,0.598,1.187,0.845,0.374,0.662,0.620,�k�k��,6.2,��
2021/03/08,21:20,0.645,0.950,0.599,1.187,0.844,0.373,0.662,0.621,�k�k��,5.4,��
2021/03/08,21:30,0.646,0.950,0.599,1.184,0.845,0.372,0.662,0.621,�k�k��,5.5,��
2021/03/08,21:40,0.648,0.947,0.599,1.187,0.845,0.373,0.662,0.621,�k�k��,5.6,��
2021/03/08,21:50,0.646,0.950,0.595,1.187,0.844,0.373,0.662,0.620,�k�k��,5.6,��
2021/03/08,22:00,0.648,0.949,0.597,1.187,0.845,0.374,0.661,0.619,�k�k��,6.0,��
2021/03/08,22:10,0.646,0.950,0.596,1.187,0.844,0.373,0.662,0.621,�k�k��,5.5,��
2021/03/08,22:20,0.647,0.950,0.599,1.186,0.845,0.373,0.661,0.621,�k�k��,5.5,��
2021/03/08,22:30,0.645,0.952,0.598,1.188,0.845,0.373,0.663,0.622,�k�k��,5.4,��
2021/03/08,22:40,0.646,0.950,0.598,1.186,0.845,0.373,0.661,0.621,�k�k��,5.0,��
2021/03/08,22:50,0.647,0.950,0.599,1.186,0.844,0.373,0.660,0.620,�k�k��,5.2,��
2021/03/08,23:00,0.647,0.950,0.598,1.185,0.842,0.373,0.662,0.621,�k�k��,4.4,��
2021/03/08,23:10,0.647,0.949,0.598,1.189,0.844,0.372,0.663,0.622,�k�k��,4.8,��
2021/03/08,23:20,0.646,0.950,0.597,1.185,0.844,0.373,0.662,0.620,�k�k��,4.3,��
2021/03/08,23:30,0.648,0.949,0.597,1.186,0.844,0.373,0.662,0.619,�k�k��,4.7,��
2021/03/08,23:40,0.648,0.948,0.598,1.186,0.842,0.373,0.662,0.620,�k�k��,4.5,��
2021/03/08,23:50,0.646,0.948,0.598,1.186,0.844,0.373,0.662,0.620,�k�k��,4.5,��
